EWG474 EDDC-EDDL

Flight info

Callsign EWG474
Flight time 1h 6m
Altitude 24000
Route BEBEX7E/04 BEBEX Q230 WRB T854 DOMUX DOMUX1A
Aircraft DH8D/M-SDE2E3FGRY/H

Departure

Time 2026-05-07 19:22
Airport Dresden Airport (EDDC)

Arrival

Time 2026-05-07 20:28
Airport Düsseldorf Airport (EDDL)
Time Latitude Longitude Altitude Speed Heading
2026-05-07 18:55 51.12719 13.76812 765 ft 0 kts 40°
2026-05-07 19:10 51.12714 13.76806 765 ft 2 kts 40°
2026-05-07 19:10 51.12702 13.76790 766 ft 2 kts 40°
2026-05-07 19:10 51.12691 13.76774 766 ft 2 kts 40°
2026-05-07 19:11 51.12679 13.76760 766 ft 2 kts 40°
2026-05-07 19:11 51.12666 13.76743 766 ft 2 kts 40°
2026-05-07 19:11 51.12655 13.76728 766 ft 0 kts 40°
2026-05-07 19:11 51.12647 13.76723 765 ft 1 kts 341°
2026-05-07 19:12 51.12641 13.76731 765 ft 0 kts 311°
2026-05-07 19:12 51.12641 13.76732 765 ft 0 kts 311°
2026-05-07 19:14 51.12642 13.76729 765 ft 3 kts 311°
2026-05-07 19:15 51.12676 13.76668 765 ft 9 kts 311°
2026-05-07 19:15 51.12716 13.76595 765 ft 10 kts 311°
2026-05-07 19:15 51.12763 13.76510 765 ft 9 kts 311°
2026-05-07 19:15 51.12792 13.76421 765 ft 10 kts 268°
2026-05-07 19:16 51.12740 13.76323 765 ft 14 kts 220°
2026-05-07 19:16 51.12658 13.76211 765 ft 18 kts 221°
2026-05-07 19:16 51.12579 13.76101 765 ft 17 kts 221°
2026-05-07 19:16 51.12490 13.75979 765 ft 13 kts 221°
2026-05-07 19:17 51.12425 13.75889 765 ft 15 kts 221°
2026-05-07 19:17 51.12373 13.75802 765 ft 9 kts 251°
2026-05-07 19:17 51.12383 13.75709 765 ft 7 kts 292°
2026-05-07 19:17 51.12399 13.75647 765 ft 0 kts 291°
2026-05-07 19:18 51.12400 13.75642 765 ft 0 kts 292°
2026-05-07 19:18 51.12403 13.75632 765 ft 0 kts 292°
2026-05-07 19:19 51.12410 13.75605 765 ft 10 kts 299°
2026-05-07 19:20 51.12450 13.75527 765 ft 9 kts 321°
2026-05-07 19:20 51.12494 13.75513 765 ft 6 kts 24°
2026-05-07 19:20 51.12504 13.75523 765 ft 0 kts 38°
2026-05-07 19:21 51.12505 13.75524 765 ft 1 kts 38°
2026-05-07 19:21 51.12679 13.75763 766 ft 80 kts 41°
2026-05-07 19:21 51.13256 13.76561 774 ft 145 kts 41°
2026-05-07 19:21 51.14051 13.77761 1251 ft 159 kts 44°
2026-05-07 19:22 51.14849 13.78962 2102 ft 151 kts 40°
2026-05-07 19:22 51.15691 13.80152 2722 ft 156 kts 40°
2026-05-07 19:22 51.16564 13.81368 3386 ft 158 kts 40°
2026-05-07 19:22 51.17456 13.82598 4040 ft 162 kts 39°
2026-05-07 19:23 51.18525 13.83364 4546 ft 169 kts 358°
2026-05-07 19:23 51.19620 13.82400 4859 ft 186 kts 306°
2026-05-07 19:23 51.20229 13.80455 5433 ft 190 kts 295°
2026-05-07 19:23 51.20762 13.78487 6021 ft 193 kts 294°
2026-05-07 19:24 51.21243 13.76663 6571 ft 195 kts 293°
2026-05-07 19:24 51.21727 13.74795 7138 ft 197 kts 293°
2026-05-07 19:24 51.22201 13.72948 7701 ft 198 kts 292°
2026-05-07 19:24 51.22678 13.71077 8266 ft 199 kts 292°
2026-05-07 19:25 51.23157 13.69184 8814 ft 201 kts 292°
2026-05-07 19:25 51.23652 13.67217 9396 ft 202 kts 291°
2026-05-07 19:25 51.24155 13.65213 9993 ft 203 kts 291°
2026-05-07 19:25 51.24674 13.63135 10593 ft 205 kts 291°
2026-05-07 19:26 51.25210 13.60986 11192 ft 207 kts 291°
2026-05-07 19:26 51.25760 13.58777 11813 ft 209 kts 291°
2026-05-07 19:26 51.26324 13.56502 12434 ft 211 kts 291°
2026-05-07 19:26 51.26899 13.54184 13033 ft 212 kts 291°
2026-05-07 19:27 51.27472 13.51862 13583 ft 214 kts 291°
2026-05-07 19:27 51.28051 13.49521 14123 ft 216 kts 291°
2026-05-07 19:27 51.28631 13.47162 14683 ft 217 kts 292°
2026-05-07 19:27 51.29226 13.44748 15220 ft 219 kts 292°
2026-05-07 19:28 51.29802 13.42408 15698 ft 222 kts 292°
2026-05-07 19:28 51.30384 13.40035 15952 ft 235 kts 292°
2026-05-07 19:28 51.31042 13.37359 16037 ft 255 kts 292°
2026-05-07 19:28 51.31755 13.34435 16068 ft 275 kts 291°
2026-05-07 19:29 51.32520 13.31304 16081 ft 293 kts 292°
2026-05-07 19:29 51.33271 13.28239 16073 ft 306 kts 291°
2026-05-07 19:29 51.34090 13.24875 16059 ft 310 kts 291°
2026-05-07 19:29 51.34870 13.21652 16056 ft 304 kts 291°
2026-05-07 19:30 51.35556 13.18362 16054 ft 302 kts 284°
2026-05-07 19:30 51.35978 13.15014 16053 ft 299 kts 281°
2026-05-07 19:30 51.36372 13.11636 16051 ft 296 kts 281°
2026-05-07 19:30 51.36759 13.08325 16054 ft 295 kts 282°
2026-05-07 19:31 51.37149 13.04994 16077 ft 293 kts 282°
2026-05-07 19:31 51.37530 13.01746 16676 ft 272 kts 282°
2026-05-07 19:31 51.37880 12.98757 17320 ft 252 kts 282°
2026-05-07 19:31 51.38209 12.95944 17815 ft 238 kts 283°
2026-05-07 19:32 51.38527 12.93257 18185 ft 228 kts 283°
2026-05-07 19:32 51.38832 12.90662 18466 ft 221 kts 283°
2026-05-07 19:32 51.39135 12.88095 18684 ft 216 kts 283°
2026-05-07 19:32 51.39431 12.85604 18857 ft 213 kts 283°
2026-05-07 19:33 51.39720 12.83149 18986 ft 211 kts 283°
2026-05-07 19:33 51.40010 12.80698 19093 ft 210 kts 283°
2026-05-07 19:33 51.40301 12.78266 19248 ft 219 kts 284°
2026-05-07 19:33 51.40612 12.75671 19504 ft 227 kts 283°
2026-05-07 19:34 51.40925 12.73033 19833 ft 233 kts 283°
2026-05-07 19:34 51.41242 12.70332 20197 ft 236 kts 283°
2026-05-07 19:34 51.41559 12.67618 20581 ft 238 kts 283°
2026-05-07 19:34 51.41880 12.64856 20968 ft 238 kts 283°
2026-05-07 19:35 51.42198 12.62101 21356 ft 239 kts 283°
2026-05-07 19:35 51.42495 12.59538 21696 ft 239 kts 283°
2026-05-07 19:35 51.42784 12.57037 22027 ft 239 kts 283°
2026-05-07 19:35 51.43047 12.54567 22343 ft 239 kts 280°
2026-05-07 19:36 51.43187 12.52060 22646 ft 239 kts 277°
2026-05-07 19:36 51.43293 12.49572 22936 ft 239 kts 277°
2026-05-07 19:36 51.43399 12.47082 23219 ft 238 kts 277°
2026-05-07 19:36 51.43508 12.44533 23497 ft 238 kts 277°
2026-05-07 19:37 51.43618 12.41960 23772 ft 238 kts 277°
2026-05-07 19:37 51.43728 12.39409 23985 ft 241 kts 277°
2026-05-07 19:37 51.43840 12.36841 24060 ft 249 kts 277°
2026-05-07 19:37 51.43957 12.34111 24088 ft 258 kts 276°
2026-05-07 19:38 51.44083 12.31177 24095 ft 268 kts 276°
2026-05-07 19:38 51.44203 12.28340 24100 ft 277 kts 276°
2026-05-07 19:38 51.44326 12.25432 24095 ft 285 kts 276°
2026-05-07 19:38 51.44452 12.22417 24095 ft 291 kts 276°
2026-05-07 19:39 51.44578 12.19379 24096 ft 297 kts 276°
2026-05-07 19:39 51.44706 12.16287 24095 ft 303 kts 276°
2026-05-07 19:39 51.44832 12.13230 24090 ft 308 kts 276°
2026-05-07 19:39 51.44958 12.10128 24088 ft 311 kts 276°
2026-05-07 19:40 51.45086 12.06990 24088 ft 313 kts 275°
2026-05-07 19:40 51.45215 12.03801 24090 ft 316 kts 275°
2026-05-07 19:40 51.45341 12.00665 24087 ft 318 kts 275°
2026-05-07 19:40 51.45471 11.97415 24085 ft 321 kts 275°
2026-05-07 19:41 51.45608 11.93975 24086 ft 322 kts 275°
2026-05-07 19:41 51.45738 11.90675 24083 ft 323 kts 275°
2026-05-07 19:41 51.45864 11.87464 24081 ft 324 kts 275°
2026-05-07 19:41 51.45991 11.84193 24081 ft 324 kts 275°
2026-05-07 19:42 51.46118 11.80904 24079 ft 324 kts 275°
2026-05-07 19:42 51.46244 11.77636 24079 ft 325 kts 275°
2026-05-07 19:42 51.46368 11.74386 24077 ft 325 kts 275°
2026-05-07 19:42 51.46493 11.71076 24077 ft 326 kts 275°
2026-05-07 19:43 51.46616 11.67798 24077 ft 326 kts 275°
2026-05-07 19:43 51.46740 11.64476 24075 ft 326 kts 275°
2026-05-07 19:43 51.46862 11.61199 24075 ft 326 kts 275°
2026-05-07 19:43 51.46980 11.57963 24072 ft 326 kts 275°
2026-05-07 19:44 51.47100 11.54693 24071 ft 326 kts 275°
2026-05-07 19:44 51.47220 11.51369 24072 ft 326 kts 275°
2026-05-07 19:44 51.47337 11.48111 24072 ft 327 kts 275°
2026-05-07 19:44 51.47456 11.44788 24073 ft 327 kts 275°
2026-05-07 19:45 51.47574 11.41452 24073 ft 327 kts 274°
2026-05-07 19:45 51.47688 11.38193 24075 ft 327 kts 274°
2026-05-07 19:45 51.47804 11.34870 24079 ft 326 kts 274°
2026-05-07 19:45 51.47916 11.31623 24083 ft 326 kts 273°
2026-05-07 19:46 51.48030 11.28317 24085 ft 325 kts 273°
2026-05-07 19:46 51.48142 11.25015 24088 ft 326 kts 273°
2026-05-07 19:46 51.48252 11.21771 24088 ft 326 kts 273°
2026-05-07 19:46 51.48362 11.18452 24092 ft 327 kts 273°
2026-05-07 19:47 51.48472 11.15144 24089 ft 327 kts 273°
2026-05-07 19:47 51.48582 11.11817 24090 ft 327 kts 273°
2026-05-07 19:47 51.48697 11.08547 24089 ft 328 kts 275°
2026-05-07 19:47 51.48983 11.05265 24096 ft 329 kts 280°
2026-05-07 19:48 51.49367 11.01973 24089 ft 329 kts 281°
2026-05-07 19:48 51.49752 10.98697 24085 ft 329 kts 281°
2026-05-07 19:48 51.50131 10.95455 24090 ft 328 kts 281°
2026-05-07 19:48 51.50523 10.92083 24090 ft 328 kts 281°
2026-05-07 19:49 51.50908 10.88752 24092 ft 328 kts 281°
2026-05-07 19:49 51.51296 10.85383 24090 ft 328 kts 281°
2026-05-07 19:49 51.51671 10.82107 24085 ft 328 kts 281°
2026-05-07 19:49 51.52058 10.78715 24086 ft 329 kts 281°
2026-05-07 19:50 51.52441 10.75343 24086 ft 328 kts 281°
2026-05-07 19:50 51.52819 10.72000 24086 ft 328 kts 281°
2026-05-07 19:50 51.53196 10.68664 24080 ft 329 kts 281°
2026-05-07 19:50 51.53568 10.65349 24078 ft 329 kts 280°
2026-05-07 19:51 51.53789 10.61991 24069 ft 329 kts 271°
2026-05-07 19:51 51.53756 10.58543 24069 ft 331 kts 269°
2026-05-07 19:51 51.53695 10.55074 24066 ft 330 kts 269°
2026-05-07 19:51 51.53631 10.51491 24067 ft 330 kts 269°
2026-05-07 19:52 51.53569 10.47979 24064 ft 328 kts 269°
2026-05-07 19:52 51.53506 10.44379 24064 ft 328 kts 269°
2026-05-07 19:52 51.53444 10.40828 24065 ft 328 kts 269°
2026-05-07 19:52 51.53383 10.37283 24065 ft 328 kts 269°
2026-05-07 19:53 51.53323 10.33813 24068 ft 328 kts 268°
2026-05-07 19:53 51.53262 10.30312 24069 ft 328 kts 268°
2026-05-07 19:53 51.53199 10.26792 24072 ft 328 kts 268°
2026-05-07 19:53 51.53138 10.23335 24073 ft 329 kts 268°
2026-05-07 19:54 51.53075 10.19858 24078 ft 329 kts 268°
2026-05-07 19:54 51.53011 10.16360 24076 ft 329 kts 269°
2026-05-07 19:54 51.52945 10.12835 24074 ft 329 kts 268°
2026-05-07 19:54 51.52880 10.09366 24076 ft 328 kts 269°
2026-05-07 19:55 51.52814 10.05932 24082 ft 328 kts 268°
2026-05-07 19:55 51.52746 10.02412 24082 ft 328 kts 269°
2026-05-07 19:55 51.52679 9.98988 24084 ft 328 kts 268°
2026-05-07 19:55 51.52609 9.95499 24080 ft 328 kts 268°
2026-05-07 19:56 51.52537 9.91924 24079 ft 328 kts 268°
2026-05-07 19:56 51.52467 9.88544 24078 ft 327 kts 268°
2026-05-07 19:56 51.52395 9.85084 24079 ft 327 kts 268°
2026-05-07 19:56 51.52322 9.81615 24076 ft 327 kts 268°
2026-05-07 19:57 51.52248 9.78145 24077 ft 328 kts 268°
2026-05-07 19:57 51.52168 9.74462 24073 ft 328 kts 268°
2026-05-07 19:57 51.52084 9.70659 24074 ft 329 kts 268°
2026-05-07 19:57 51.51997 9.66820 24076 ft 328 kts 268°
2026-05-07 19:58 51.51911 9.63060 24077 ft 328 kts 268°
2026-05-07 19:58 51.51822 9.59238 24079 ft 328 kts 268°
2026-05-07 19:58 51.51731 9.55383 24081 ft 330 kts 268°
2026-05-07 19:58 51.51638 9.51476 24081 ft 330 kts 268°
2026-05-07 19:59 51.51545 9.47630 24084 ft 330 kts 268°
2026-05-07 19:59 51.51448 9.43713 24085 ft 329 kts 268°
2026-05-07 19:59 51.51352 9.39826 24086 ft 328 kts 268°
2026-05-07 19:59 51.51253 9.35928 24089 ft 328 kts 268°
2026-05-07 20:00 51.51158 9.32197 24089 ft 327 kts 267°
2026-05-07 20:00 51.51062 9.28502 24090 ft 327 kts 267°
2026-05-07 20:00 51.50967 9.24853 24092 ft 328 kts 267°
2026-05-07 20:00 51.50875 9.21369 24092 ft 328 kts 267°
2026-05-07 20:01 51.50783 9.17933 24084 ft 328 kts 267°
2026-05-07 20:01 51.50691 9.14517 24087 ft 327 kts 267°
2026-05-07 20:01 51.50592 9.10913 24086 ft 327 kts 267°
2026-05-07 20:01 51.50576 9.07189 24086 ft 328 kts 271°
2026-05-07 20:02 51.50640 9.03454 24085 ft 327 kts 271°
2026-05-07 20:02 51.50699 8.99992 24087 ft 327 kts 271°
2026-05-07 20:02 51.50754 8.96518 24086 ft 327 kts 271°
2026-05-07 20:02 51.50809 8.92719 24083 ft 327 kts 271°
2026-05-07 20:03 51.50863 8.88884 24080 ft 326 kts 271°
2026-05-07 20:03 51.50911 8.85101 24082 ft 326 kts 271°
2026-05-07 20:03 51.50958 8.81291 24081 ft 326 kts 271°
2026-05-07 20:03 51.51002 8.77519 24080 ft 327 kts 271°
2026-05-07 20:04 51.51044 8.73705 24080 ft 327 kts 271°
2026-05-07 20:04 51.51085 8.69887 24077 ft 328 kts 271°
2026-05-07 20:04 51.51125 8.66015 24080 ft 327 kts 271°
2026-05-07 20:04 51.51163 8.62207 24079 ft 326 kts 271°
2026-05-07 20:05 51.51199 8.58412 24076 ft 326 kts 271°
2026-05-07 20:05 51.51231 8.54857 24078 ft 325 kts 271°
2026-05-07 20:05 51.51263 8.51313 24081 ft 323 kts 271°
2026-05-07 20:05 51.51294 8.47537 23833 ft 324 kts 271°
2026-05-07 20:06 51.51324 8.43687 23475 ft 328 kts 271°
2026-05-07 20:06 51.51355 8.39752 23087 ft 333 kts 271°
2026-05-07 20:06 51.51384 8.35813 22680 ft 337 kts 271°
2026-05-07 20:06 51.51411 8.31889 22283 ft 339 kts 270°
2026-05-07 20:07 51.51438 8.27960 21880 ft 340 kts 270°
2026-05-07 20:07 51.51463 8.24076 21483 ft 341 kts 270°
2026-05-07 20:07 51.51487 8.20126 21084 ft 342 kts 270°
2026-05-07 20:07 51.51510 8.16158 20672 ft 343 kts 270°
2026-05-07 20:08 51.51532 8.12163 20265 ft 344 kts 270°
2026-05-07 20:08 51.51527 8.08128 19844 ft 345 kts 267°
2026-05-07 20:08 51.51062 8.04210 19473 ft 345 kts 255°
2026-05-07 20:08 51.50370 8.00291 19036 ft 346 kts 254°
2026-05-07 20:09 51.49671 7.96379 18613 ft 347 kts 254°
2026-05-07 20:09 51.48967 7.92438 18196 ft 347 kts 254°
2026-05-07 20:09 51.48268 7.88518 17774 ft 347 kts 254°
2026-05-07 20:10 51.46874 7.80713 16942 ft 341 kts 254°
2026-05-07 20:10 51.46183 7.76857 16529 ft 338 kts 254°
2026-05-07 20:10 51.45498 7.73032 16124 ft 335 kts 254°
2026-05-07 20:10 51.44831 7.69325 15730 ft 331 kts 254°
2026-05-07 20:11 51.44157 7.65589 15332 ft 330 kts 254°
2026-05-07 20:11 51.43496 7.61928 14941 ft 326 kts 254°
2026-05-07 20:11 51.42612 7.57038 14421 ft 324 kts 254°
2026-05-07 20:11 51.42199 7.54694 14185 ft 321 kts 256°
2026-05-07 20:12 51.41960 7.51199 13986 ft 313 kts 270°
2026-05-07 20:12 51.41985 7.47621 13819 ft 305 kts 271°
2026-05-07 20:12 51.42016 7.44079 13672 ft 301 kts 271°
2026-05-07 20:12 51.42047 7.40582 13523 ft 298 kts 271°
2026-05-07 20:13 51.42074 7.37093 13377 ft 295 kts 271°
2026-05-07 20:13 51.42098 7.33681 13236 ft 292 kts 270°
2026-05-07 20:13 51.42120 7.30245 13093 ft 296 kts 270°
2026-05-07 20:13 51.42141 7.26814 12954 ft 300 kts 270°
2026-05-07 20:14 51.42159 7.23397 12810 ft 302 kts 270°
2026-05-07 20:14 51.42165 7.19966 12642 ft 304 kts 268°
2026-05-07 20:14 51.41665 7.16715 12484 ft 298 kts 242°
2026-05-07 20:14 51.40432 7.14212 12212 ft 292 kts 227°
2026-05-07 20:15 51.38994 7.11818 11833 ft 292 kts 226°
2026-05-07 20:15 51.37524 7.09405 11431 ft 291 kts 226°
2026-05-07 20:15 51.36063 7.07009 11041 ft 290 kts 226°
2026-05-07 20:15 51.34629 7.04659 10634 ft 286 kts 226°
2026-05-07 20:16 51.33170 7.02265 10216 ft 282 kts 226°
2026-05-07 20:16 51.31774 6.99975 9814 ft 280 kts 226°
2026-05-07 20:16 51.30383 6.97692 9438 ft 278 kts 226°
2026-05-07 20:16 51.29035 6.95481 9126 ft 274 kts 226°
2026-05-07 20:17 51.27726 6.93335 8859 ft 269 kts 226°
2026-05-07 20:17 51.26427 6.91206 8605 ft 265 kts 226°
2026-05-07 20:17 51.25207 6.89208 8350 ft 261 kts 226°
2026-05-07 20:17 51.24012 6.87252 8095 ft 258 kts 226°
2026-05-07 20:18 51.22780 6.85235 7849 ft 256 kts 226°
2026-05-07 20:18 51.21567 6.83252 7606 ft 255 kts 226°
2026-05-07 20:18 51.20397 6.81256 7355 ft 253 kts 231°
2026-05-07 20:18 51.19314 6.79049 7096 ft 249 kts 233°
2026-05-07 20:19 51.18266 6.76842 6828 ft 244 kts 234°
2026-05-07 20:19 51.17256 6.74716 6574 ft 241 kts 234°
2026-05-07 20:19 51.16224 6.72546 6309 ft 239 kts 234°
2026-05-07 20:19 51.15202 6.70402 6045 ft 237 kts 233°
2026-05-07 20:20 51.14235 6.68379 5799 ft 235 kts 233°
2026-05-07 20:20 51.13285 6.66387 5550 ft 233 kts 234°
2026-05-07 20:20 51.12367 6.64464 5301 ft 227 kts 233°
2026-05-07 20:20 51.11433 6.62510 5041 ft 220 kts 233°
2026-05-07 20:21 51.10503 6.60564 4789 ft 208 kts 233°
2026-05-07 20:21 51.09615 6.58690 4556 ft 207 kts 236°
2026-05-07 20:21 51.09097 6.56558 4291 ft 206 kts 268°
2026-05-07 20:21 51.09286 6.54229 4038 ft 204 kts 292°
2026-05-07 20:22 51.10131 6.52465 3783 ft 201 kts 323°
2026-05-07 20:22 51.11269 6.51065 3544 ft 203 kts 324°
2026-05-07 20:22 51.12367 6.49763 3289 ft 199 kts 332°
2026-05-07 20:22 51.13578 6.49319 3094 ft 182 kts
2026-05-07 20:23 51.14656 6.50047 3020 ft 162 kts 34°
2026-05-07 20:23 51.15634 6.51070 3005 ft 166 kts 33°
2026-05-07 20:23 51.16657 6.52119 2997 ft 171 kts 34°
2026-05-07 20:23 51.17564 6.53429 2991 ft 174 kts 54°
2026-05-07 20:24 51.18275 6.55087 2992 ft 178 kts 53°
2026-05-07 20:24 51.19088 6.56732 2988 ft 183 kts 51°
2026-05-07 20:24 51.19903 6.58405 2875 ft 191 kts 53°
2026-05-07 20:24 51.20761 6.60198 2616 ft 203 kts 53°
2026-05-07 20:25 51.21645 6.62022 2292 ft 198 kts 53°
2026-05-07 20:25 51.22478 6.63746 1983 ft 184 kts 53°
2026-05-07 20:25 51.23259 6.65385 1763 ft 174 kts 54°
2026-05-07 20:25 51.23983 6.66888 1493 ft 158 kts 53°
2026-05-07 20:26 51.24655 6.68288 1286 ft 145 kts 53°
2026-05-07 20:26 51.25265 6.69566 1085 ft 137 kts 54°
2026-05-07 20:26 51.25845 6.70785 914 ft 132 kts 53°
2026-05-07 20:26 51.26406 6.71956 733 ft 128 kts 53°
2026-05-07 20:27 51.26958 6.73125 576 ft 134 kts 53°
2026-05-07 20:27 51.27536 6.74311 361 ft 131 kts 53°
2026-05-07 20:27 51.28097 6.75496 193 ft 128 kts 52°
2026-05-07 20:27 51.28620 6.76582 155 ft 97 kts 53°
2026-05-07 20:28 51.28897 6.77163 155 ft 43 kts 52°
2026-05-07 20:28 51.29016 6.77449 155 ft 21 kts 71°
2026-05-07 20:28 51.28983 6.77597 155 ft 6 kts 142°
2026-05-07 20:28 51.28976 6.77605 155 ft 0 kts 141°
2026-05-07 20:29 51.28973 6.77609 155 ft 0 kts 141°
2026-05-07 20:29 51.28964 6.77620 155 ft 6 kts 143°
2026-05-07 20:29 51.28898 6.77630 155 ft 13 kts 221°
2026-05-07 20:29 51.28801 6.77432 155 ft 24 kts 231°
2026-05-07 20:30 51.28700 6.77219 155 ft 22 kts 233°
2026-05-07 20:30 51.28599 6.77018 155 ft 22 kts 231°
2026-05-07 20:30 51.28500 6.76801 155 ft 27 kts 233°
2026-05-07 20:30 51.28375 6.76539 155 ft 30 kts 233°
2026-05-07 20:31 51.28243 6.76261 155 ft 31 kts 233°
2026-05-07 20:31 51.28128 6.76018 155 ft 21 kts 233°
2026-05-07 20:31 51.28048 6.75849 155 ft 16 kts 233°
2026-05-07 20:31 51.27982 6.75816 155 ft 10 kts 171°
2026-05-07 20:32 51.27899 6.75821 155 ft 15 kts 183°
2026-05-07 20:32 51.27777 6.75811 155 ft 18 kts 185°
2026-05-07 20:32 51.27678 6.75808 155 ft 13 kts 180°
2026-05-07 20:32 51.27609 6.75836 155 ft 9 kts 154°
2026-05-07 20:33 51.27564 6.75872 155 ft 7 kts 153°
2026-05-07 20:33 51.27547 6.75924 155 ft 5 kts 73°
2026-05-07 20:33 51.27559 6.75971 155 ft 4 kts 63°
2026-05-07 20:33 51.27563 6.75983 155 ft 0 kts 64°